World > North America > United States > South Carolina

Hourly Lugoff, SC Regional Weather

Feedback E-mail the Weather

Latest News

Lugoff, SC Weather Maps

°F °C°F °C
Lugoff Weather Map
UTC Time: 5/20/2022, 03:49
Your Time:

Lugoff, SC Regional Weather

Expires:202205200400;;299503
ASUS42 KCAE 200310
RWRCAE
REGIONAL WEATHER ROUNDUP
NATIONAL WEATHER SERVICE COLUMBIA SC
1100 PM EDT THU MAY 19 2022

NOTE: "FAIR" INDICATES FEW OR NO CLOUDS BELOW 12,000 FEET WITH NO
SIGNIFICANT WEATHER AND/OR OBSTRUCTIONS TO VISIBILITY.

NOT ALL STATIONS ARE QUALITY CONTROLLED BY THE NATIONAL 
WEATHER SERVICE. USE DATA WITH CAUTION...ESPECIALLY 
DEWPOINT OBSERVATIONS.


SCZ001>059-115-116-135>137-GAZ040-063>065-077-200400-
...UPSTATE SOUTH CAROLINA...
  
CITY           SKY/WX    TMP DP  RH WIND       PRES   REMARKS
ANDERSON       PTCLDY    78  66  66 SW8       29.88R                  
LIBERTY        PTCLDY    71  65  80 SW7       29.88R                  
SPARTANBURG    MOCLDY    73  61  64 CALM      29.86R                  
CLEMSON        PTCLDY    79  65  62 CALM      29.88R                  
GREENVILLE     PTCLDY    82  62  50 S6        29.89R                  
GREENWOOD      MOCLDY    79  65  62 SW8       29.90R                  
GREER          PTCLDY    77  60  55 SW7       29.88R                  
ROCK HILL      MOCLDY    74  64  71 SW6       29.86R                  
CHESTER        MOCLDY    77  63  61 CALM      29.88R                  
LAURENS        MOCLDY    77  64  65 SW5       29.88R                  


...CENTRAL SOUTH CAROLINA...
  
CITY           SKY/WX    TMP DP  RH WIND       PRES   REMARKS
COLUMBIA APT   MOCLDY    82  66  58 W7        29.86R                  
COLUMBIA OWENS MOCLDY    85  65  51 SW6       29.87R                  
MCENTIRE ANGB  MOCLDY    81  65  57 CALM      29.86R                  
ORANGEBURG     PTCLDY    74  69  85 CALM      29.88R                  
SUMTER SHAW    MOCLDY    83  65  53 SW9       29.85R                  
NEWBERRY       MOCLDY    79  63  57 SW6       29.91R                  
AIKEN          FAIR      79  67  66 SW5       29.91R                  
BARNWELL       FAIR      77  68  73 CALM      29.89R                  
CAMDEN         FAIR      82  63  51 CALM      29.87R                  
LANCASTER      MOCLDY    77  66  69 SW6       29.87R                  
WINNSBORO      MOCLDY    81  63  54 SW5       29.88R                  


...EASTERN AND COASTAL SOUTH CAROLINA...
  
CITY           SKY/WX    TMP DP  RH WIND       PRES   REMARKS
MYRTLE BEACH   PTCLDY    76  72  87 S10       29.88R                  
N MYRTLE BCH   PTCLDY    76  70  82 SW15      29.87R                  
CONWAY         FAIR      79  68  69 S6        29.88R                  
MARION         FAIR      79  70  73 SW7       29.87R                  
HARTSVILLE     MOCLDY    75  64  69 CALM      29.86R                  
FLORENCE       MOCLDY    82  67  60 SW6       29.86R                  
DARLINGTON     MOCLDY    78  66  66 SW3       29.86R                  
CHARLESTON APT PTCLDY    77  68  73 S10       29.89R                  
WALTERBORO     CLEAR     77  70  78 S5        29.90R                  
BEAUFORT       CLEAR     80  71  74 S7        29.90R                  
HILTON HEAD    CLEAR     79  73  83 S13G18    29.92                   


...EASTERN GEORGIA...
  
CITY           SKY/WX    TMP DP  RH WIND       PRES   REMARKS
AUGUSTA BUSH F PTCLDY    74  69  85 CALM      29.87R                  
AUGUSTA DANIEL MOCLDY    84  66  54 SW3       29.89R                  
THOMSON        MOCLDY    76  68  76 S3        29.89R                  
WASHINGTON     MOCLDY    78  67  69 S3        29.90R                  
CLAXTON        FAIR      76  70  81 CALM      29.91R                  
STATESBORO     CLEAR     74  68  81 CALM      29.90R                  
SAVANNAH       CLEAR     78  70  76 S10       29.91R                  


...SOUTHERN NORTH CAROLINA...
  
CITY           SKY/WX    TMP DP  RH WIND       PRES   REMARKS
CHARLOTTE      MOCLDY    78  64  61 S5        29.86R                  
MONROE         MOCLDY    78  63  59 SW5       29.85R                  
WADESBORO      MOCLDY    78  64  62 CALM      29.85R                  
ROCKINGHAM     MOCLDY    80  64  57 SW5       29.85R                  
RUTHERFORDTON  MOCLDY    73  63  68 CALM      29.88R                  
ASHEVILLE      MOCLDY    73  60  63 CALM      29.94R                  

$$
  

SKY/WX - Weather  TMP - Temperature  DP - Dew Point  RH - Humidity
WIND - Wind Direction/Speed PRES - Barometric Pressure VSB - Visibility
WCI - Wind Chill Index E13G22 Wind - East Wind 13 mph/Gusts of 22 mph

Trending Headlines

Lugoff Radar Loop



Lugoff Quick Facts


National Two Day Weather Forecast


E-mail the Lugoff Weather Forecast

Voice your opinion or tell us about page issues...